Location: Unspecified
(0.0000°N, 0.0000°E)
Time: 19:31:05
(UTC+01:00)

Cosmos 1833 Rocket - Visible Passes

Search period start: 31 October 2014 00:00
Search period end: 10 November 2014 00:00
Orbit: 831 x 842 km, 71.0° (Epoch: 31 October)

Date Brightness Start Highest point End Pass type
(mag) Time Alt. Az. Time Alt. Az. Time Alt. Az.
07 Nov 5.1 21:24:57 10° SSW 21:25:41 14° SSW 21:25:41 14° SSW visible
08 Nov 4.5 21:08:23 10° S 21:10:14 22° S 21:10:14 22° S visible
09 Nov 3.9 20:51:49 10° S 20:54:50 33° S 20:54:50 33° S visible
